Regional Weather Roundup
Issued by NWS Green Bay, WI

Home | Current Version | Previous Version | Graphics & Text | Print | Product List | Glossary Off
Versions: 1 2 3 4 5 6 7 8 9 10 11 12 13 14 15 16 17 18 19 20 21 22 23 24 25 26 27 28 29 30 31 32 33 34 35 36 37 38 39 40 41 42 43 44 45 46 47 48 49 50

717
ASUS43 KGRB 222200
RWRGRB

NORTH-CENTRAL AND NORTHEAST WISCONSIN REGIONAL WEATHER ROUNDUP
NATIONAL WEATHER SERVICE GREEN BAY WI
500 PM CDT MON MAY 22 2017

WIZ005-009-010>012-018-019-222300-
NORTH CENTRAL WISCONSIN

CITY           SKY/WX    TMP DP  RH WIND       PRES   REMARKS
IRONWOOD       LGT RAIN  52  44  74 W12       29.81S
MANITOWISH WTR NOT AVBL
ARBOR VITAE    NOT AVBL
EAGLE RIVER    NOT AVBL
LAND O LAKES   NOT AVBL
RHINELANDER    PTSUNNY   58  41  53 NW12G17   29.81S
PHILLIPS       NOT AVBL
ANTIGO         NOT AVBL
TOMAHAWK       NOT AVBL
MERRILL        NOT AVBL
$$

WIZ013-073-222300-
NORTHEAST WISCONSIN

CITY           SKY/WX    TMP DP  RH WIND       PRES   REMARKS
IRON MOUNTAIN  CLOUDY    55  41  59 W9        29.79R
MARINETTE      PTSUNNY   65  43  44 SW8G16    29.78F
$$

WIZ017-030-035>037-045-222300-
CENTRAL WISCONSIN

CITY           SKY/WX    TMP DP  RH WIND       PRES   REMARKS
MEDFORD        NOT AVBL
WAUSAU         CLOUDY    62  43  49 W15       29.78S
MOSINEE        PTSUNNY   64  43  45 W17G23    29.80
MARSHFIELD     PTSUNNY   64  43  46 W13       29.80S
WISC RAPIDS    MOSUNNY   70  43  37 W16G25    29.81S
STEVENS POINT  NOT AVBL
WAUPACA        NOT AVBL
SHAWANO        NOT AVBL
CLINTONVILLE   NOT AVBL
WAUTOMA        PTSUNNY   67  47  48 SW13G25   29.81S
$$

WIZ038-039-048-051-222300-
FOX VALLEY

CITY           SKY/WX    TMP DP  RH WIND       PRES   REMARKS
NWS GREEN BAY  PTSUNNY   68  50  52 SW14      29.79F
APPLETON       PTSUNNY   66  41  39 SW14G23   29.79F
OSHKOSH        MOSUNNY   67  49  52 SW13G22   29.82S
FOND DU LAC    CLOUDY    67  48  50 SW15      29.84F
$$

WIZ022-050-052-222300-
EAST CENTRAL WISCONSIN

CITY           SKY/WX    TMP DP  RH WIND       PRES   REMARKS
EPHRAIM        NOT AVBL
WASHINGTON ISL NOT AVBL
STURGEON BAY   PTSUNNY   56  45  66 S13       29.80F
MANITOWOC      NOT AVBL
SHEBOYGAN      PTSUNNY   65  51  60 SW16G22   29.84F
$$

LMZ563-521-522-541>543-222300-
LAKESHORE

STATION/POSITION TIME  TEMP    WIND        PRES    VSBY  WAVE
                       AIR SEA DIR/SP/G                  HT/PER
                 (UTC) (F)     (DEG/KT/KT) (MB)    (MI)  (FT/S)
SHEBOYGAN LKSHOR 2100   64     230/ 19/ 24 1010.6R
KEWAUNEE LKSHORE 2130          170/ 13/ 15 1009.5F
NORTHPORT PIER   2140   53     150/  8/ 16 1009.5S
N MID LAKE BUOY  2050   43 39  180/ 17/ 19 1011.1F         3/ 5
CHAMBERS ISLAND  2140   62     180/  8/ 15 1008.1F
MENOMINEE LKSHOR 2124          180/ 13/ 17 1007.8
$$




USA.gov is the U.S. government's official web portal to all federal, state and local government web resources and services.